When you browse on this site, cookies collect data to enhance your experience and personalize the content and advertising you see.
Visit our Privacy Policy to learn more. By continuing to use the site, you agree to this use of cookies and data.

Hourly Weather Kerns

Today, 8 July, Wednesday

Time Temperature Precipitation Wind Pressure Humidity
00:00 +21°C° 0.4 mm 5 mps 763 mmHg 96%
01:00 +21°C° 0.4 mm 5 mps 762 mmHg 96%
02:00 +21°C° 0.2 mm 6 mps 762 mmHg 96%
03:00 +20°C° 0.2 mm 6 mps 762 mmHg 96%
04:00 +20°C° 0 mm 5 mps 762 mmHg 97%
05:00 +20°C° 0.1 mm 5 mps 762 mmHg 97%
06:00 +20°C° 0.1 mm 5 mps 762 mmHg 97%
07:00 +20°C° 0.1 mm 5 mps 762 mmHg 97%
08:00 +21°C° 0 mm 5 mps 762 mmHg 89%
09:00 +23°C° 0 mm 6 mps 762 mmHg 81%
10:00 +24°C° 0 mm 6 mps 762 mmHg 71%
11:00 +26°C° 0 mm 6 mps 762 mmHg 67%
12:00 +27°C° 0 mm 6 mps 761 mmHg 62%
13:00 +28°C° 0 mm 6 mps 761 mmHg 58%
14:00 +27°C° 0 mm 6 mps 761 mmHg 60%
15:00 +27°C° 0 mm 6 mps 760 mmHg 61%
16:00 +26°C° 0 mm 6 mps 760 mmHg 63%
17:00 +24°C° 0.1 mm 6 mps 761 mmHg 73%
18:00 +22°C° 0.1 mm 5 mps 761 mmHg 83%
19:00 +20°C° 0.1 mm 5 mps 761 mmHg 94%
20:00 +20°C° 0.1 mm 5 mps 762 mmHg 94%
21:00 +20°C° 0.1 mm 5 mps 762 mmHg 95%
22:00 +20°C° 0.1 mm 5 mps 762 mmHg 96%
23:00 +20°C° 0 mm 5 mps 762 mmHg 96%

Tomorrow, 9 July, Thursday

Time Temperature Precipitation Wind Pressure Humidity
00:00 +20°C° 0 mm 5 mps 762 mmHg 96%
01:00 +20°C° 0 mm 5 mps 761 mmHg 96%
02:00 +19°C° 0 mm 5 mps 761 mmHg 96%
03:00 +19°C° 0 mm 5 mps 761 mmHg 96%
04:00 +19°C° 0 mm 5 mps 761 mmHg 96%
05:00 +19°C° 0 mm 4 mps 761 mmHg 96%
06:00 +19°C° 0 mm 4 mps 761 mmHg 96%
07:00 +19°C° 0 mm 4 mps 762 mmHg 95%
08:00 +21°C° 0 mm 5 mps 762 mmHg 87%
09:00 +23°C° 0 mm 5 mps 762 mmHg 79%
10:00 +27°C° 0 mm 5 mps 762 mmHg 70%
11:00 +27°C° 0 mm 5 mps 762 mmHg 65%
12:00 +28°C° 0 mm 5 mps 761 mmHg 60%
13:00 +29°C° 0 mm 5 mps 760 mmHg 55%
14:00 +28°C° 0.1 mm 5 mps 760 mmHg 60%
15:00 +28°C° 0.1 mm 5 mps 760 mmHg 64%
16:00 +27°C° 0.1 mm 5 mps 760 mmHg 68%
17:00 +26°C° 0.2 mm 5 mps 761 mmHg 77%
18:00 +23°C° 0.2 mm 5 mps 761 mmHg 87%
19:00 +22°C° 0.2 mm 5 mps 762 mmHg 96%
20:00 +22°C° 0.1 mm 6 mps 762 mmHg 96%
21:00 +21°C° 0.1 mm 6 mps 762 mmHg 96%
22:00 +21°C° 0.1 mm 6 mps 763 mmHg 96%
23:00 +21°C° 0.1 mm 6 mps 762 mmHg 96%

Day after tomorrow, 10 July, Friday

Time Temperature Precipitation Wind Pressure Humidity
00:00 +21°C° 0.1 mm 6 mps 762 mmHg 96%
01:00 +21°C° 0.1 mm 6 mps 762 mmHg 96%
02:00 +20°C° 0.1 mm 6 mps 762 mmHg 96%
03:00 +20°C° 0.1 mm 6 mps 762 mmHg 96%
04:00 +20°C° 0.1 mm 5 mps 761 mmHg 97%
05:00 +20°C° 0 mm 5 mps 762 mmHg 96%
06:00 +20°C° 0 mm 5 mps 762 mmHg 96%
07:00 +20°C° 0 mm 5 mps 762 mmHg 96%
08:00 +21°C° 0 mm 5 mps 763 mmHg 88%
09:00 +23°C° 0 mm 5 mps 763 mmHg 79%
10:00 +26°C° 0 mm 5 mps 763 mmHg 71%
11:00 +27°C° 0 mm 5 mps 762 mmHg 68%
12:00 +27°C° 0 mm 5 mps 762 mmHg 64%
13:00 +28°C° 0 mm 5 mps 761 mmHg 60%
14:00 +28°C° 0 mm 5 mps 761 mmHg 64%
15:00 +27°C° 0 mm 5 mps 761 mmHg 67%
16:00 +26°C° 0 mm 5 mps 761 mmHg 71%
17:00 +25°C° 0 mm 5 mps 761 mmHg 78%
18:00 +22°C° 0 mm 5 mps 761 mmHg 84%
19:00 +21°C° 0 mm 4 mps 762 mmHg 91%
20:00 +20°C° 0 mm 4 mps 762 mmHg 92%
21:00 +20°C° 0 mm 4 mps 762 mmHg 93%
22:00 +19°C° 0 mm 4 mps 763 mmHg 95%
23:00 +19°C° 0 mm 4 mps 762 mmHg 95%

11 July, Saturday

Time Temperature Precipitation Wind Pressure Humidity
00:00 +19°C° 0 mm 4 mps 762 mmHg 96%
01:00 +19°C° 0 mm 3 mps 761 mmHg 96%
02:00 +19°C° 0 mm 4 mps 761 mmHg 96%
03:00 +19°C° 0 mm 4 mps 761 mmHg 95%
04:00 +20°C° 0 mm 4 mps 760 mmHg 95%
05:00 +20°C° 0 mm 4 mps 761 mmHg 94%
06:00 +20°C° 0 mm 4 mps 761 mmHg 92%
07:00 +21°C° 0 mm 4 mps 761 mmHg 91%
08:00 +22°C° 0 mm 4 mps 761 mmHg 85%
09:00 +23°C° 0 mm 4 mps 761 mmHg 79%
10:00 +25°C° 0 mm 5 mps 761 mmHg 74%
11:00 +27°C° 0 mm 5 mps 761 mmHg 69%
12:00 +28°C° 0 mm 5 mps 760 mmHg 65%
13:00 +29°C° 0 mm 5 mps 759 mmHg 60%
14:00 +28°C° 0 mm 5 mps 759 mmHg 63%
15:00 +28°C° 0 mm 5 mps 759 mmHg 65%
16:00 +27°C° 0 mm 5 mps 759 mmHg 68%
17:00 +25°C° 0 mm 4 mps 759 mmHg 75%
18:00 +23°C° 0 mm 4 mps 760 mmHg 83%
19:00 +21°C° 0 mm 3 mps 760 mmHg 90%
20:00 +21°C° 0 mm 3 mps 760 mmHg 89%
21:00 +22°C° 0 mm 3 mps 761 mmHg 89%
22:00 +22°C° 0 mm 3 mps 761 mmHg 88%
23:00 +22°C° 0 mm 3 mps 761 mmHg 89%

12 July, Sunday

Time Temperature Precipitation Wind Pressure Humidity
00:00 +22°C° 0 mm 3 mps 760 mmHg 90%
01:00 +23°C° 0 mm 2 mps 760 mmHg 91%
02:00 +23°C° 0 mm 2 mps 760 mmHg 91%
03:00 +23°C° 0 mm 2 mps 759 mmHg 91%
04:00 +23°C° 0 mm 2 mps 759 mmHg 91%
05:00 +23°C° 0.1 mm 2 mps 759 mmHg 93%
06:00 +22°C° 0.1 mm 3 mps 760 mmHg 94%
07:00 +22°C° 0.1 mm 3 mps 760 mmHg 96%
08:00 +24°C° 0.1 mm 3 mps 760 mmHg 90%
09:00 +26°C° 0.1 mm 3 mps 760 mmHg 83%
10:00 +27°C° 0.1 mm 3 mps 760 mmHg 77%
11:00 +28°C° 0.1 mm 3 mps 760 mmHg 72%
12:00 +29°C° 0.1 mm 4 mps 759 mmHg 68%
13:00 +29°C° 0.1 mm 4 mps 759 mmHg 64%
14:00 +29°C° 0 mm 4 mps 759 mmHg 67%
15:00 +28°C° 0 mm 4 mps 759 mmHg 71%
16:00 +27°C° 0 mm 4 mps 759 mmHg 74%
17:00 +26°C° 0 mm 3 mps 759 mmHg 80%
18:00 +25°C° 0 mm 3 mps 759 mmHg 87%
19:00 +24°C° 0 mm 3 mps 760 mmHg 93%
20:00 +24°C° 0.1 mm 3 mps 760 mmHg 94%
21:00 +22°C° 0.1 mm 3 mps 761 mmHg 95%
22:00 +22°C° 0.1 mm 3 mps 761 mmHg 96%
23:00 +22°C° 0 mm 3 mps 761 mmHg 95%

13 July, Monday

Time Temperature Precipitation Wind Pressure Humidity
00:00 +22°C° 0 mm 3 mps 761 mmHg 94%
01:00 +22°C° 0 mm 3 mps 760 mmHg 93%
02:00 +22°C° 0 mm 3 mps 760 mmHg 93%
03:00 +22°C° 0 mm 3 mps 760 mmHg 92%
04:00 +24°C° 0 mm 3 mps 760 mmHg 92%
05:00 +22°C° 0 mm 3 mps 760 mmHg 92%
06:00 +22°C° 0 mm 3 mps 761 mmHg 92%
07:00 +22°C° 0 mm 3 mps 761 mmHg 93%
08:00 +25°C° 0 mm 3 mps 761 mmHg 86%
09:00 +26°C° 0 mm 4 mps 762 mmHg 79%
10:00 +28°C° 0 mm 4 mps 762 mmHg 73%
11:00 +29°C° 0 mm 4 mps 761 mmHg 69%
12:00 +30°C° 0 mm 5 mps 761 mmHg 65%
13:00 +32°C° 0 mm 5 mps 760 mmHg 61%
14:00 +30°C° 0 mm 5 mps 760 mmHg 64%
15:00 +29°C° 0 mm 5 mps 759 mmHg 67%
16:00 +29°C° 0 mm 5 mps 759 mmHg 70%
17:00 +27°C° 0.1 mm 5 mps 760 mmHg 78%
18:00 +26°C° 0.1 mm 5 mps 760 mmHg 85%
19:00 +23°C° 0.1 mm 5 mps 760 mmHg 93%
20:00 +23°C° 0.1 mm 5 mps 761 mmHg 92%
21:00 +23°C° 0.1 mm 5 mps 761 mmHg 91%
22:00 +22°C° 0.1 mm 6 mps 762 mmHg 90%
23:00 +22°C° 0 mm 5 mps 762 mmHg 90%
Show more